Time,TemperatureF,DewpointF,PressureIn,WindDirection,WindDirectionDegrees,WindSpeedMPH,WindSpeedGustMPH,Humidity,HourlyPrecipIn,Conditions,Clouds,dailyrainin,SoftwareType,DateUTC
2013-08-12 00:02:00,64.0,61.0,30.05,NW,311,0.0,1.0,89,0.00,,,0.00,,2013-08-12 04:02:00,
2013-08-12 00:12:00,64.0,60.0,30.05,NW,311,0.0,0.0,88,0.00,,,0.00,,2013-08-12 04:12:00,
2013-08-12 00:22:00,64.0,60.0,30.05,NW,311,0.0,0.0,88,0.00,,,0.00,,2013-08-12 04:22:00,
2013-08-12 00:33:00,64.0,61.0,30.05,NW,311,0.0,0.0,89,0.00,,,0.00,,2013-08-12 04:33:00,
2013-08-12 00:43:00,64.0,61.0,30.04,NW,311,0.0,0.0,89,0.00,,,0.00,,2013-08-12 04:43:00,
2013-08-12 00:52:00,64.0,61.0,30.04,NW,311,0.0,0.0,89,0.00,,,0.00,,2013-08-12 04:52:00,
2013-08-12 01:02:00,64.0,61.0,30.04,NW,311,0.0,0.0,90,0.00,,,0.00,,2013-08-12 05:02:00,
2013-08-12 01:11:00,64.0,61.0,30.04,NW,311,0.0,0.0,90,0.00,,,0.00,,2013-08-12 05:11:00,
2013-08-12 01:22:00,64.0,61.0,30.04,NW,311,0.0,1.0,90,0.00,,,0.00,,2013-08-12 05:22:00,
2013-08-12 01:32:00,64.0,61.0,30.04,NW,311,0.0,0.0,90,0.00,,,0.00,,2013-08-12 05:32:00,
2013-08-12 01:43:00,64.0,61.0,30.04,NW,311,0.0,0.0,89,0.00,,,0.00,,2013-08-12 05:43:00,
2013-08-12 01:52:00,63.0,60.0,30.04,NW,311,0.0,0.0,90,0.00,,,0.00,,2013-08-12 05:52:00,
2013-08-12 02:02:00,63.0,60.0,30.04,NW,311,0.0,0.0,90,0.00,,,0.00,,2013-08-12 06:02:00,
2013-08-12 02:11:00,63.0,60.0,30.04,NW,311,0.0,0.0,91,0.00,,,0.00,,2013-08-12 06:11:00,
2013-08-12 02:22:00,63.0,61.0,30.04,NW,311,0.0,0.0,92,0.00,,,0.00,,2013-08-12 06:22:00,
2013-08-12 02:32:00,63.0,61.0,30.03,NW,311,0.0,0.0,92,0.00,,,0.00,,2013-08-12 06:32:00,
2013-08-12 02:42:00,63.0,61.0,30.03,NW,311,0.0,0.0,92,0.00,,,0.00,,2013-08-12 06:42:00,
2013-08-12 02:52:00,63.0,61.0,30.02,NW,311,0.0,0.0,92,0.00,,,0.00,,2013-08-12 06:52:00,
2013-08-12 03:01:00,63.0,61.0,30.02,NW,311,0.0,0.0,92,0.00,,,0.00,,2013-08-12 07:01:00,
2013-08-12 03:12:00,62.0,60.0,30.02,NW,311,0.0,0.0,92,0.00,,,0.00,,2013-08-12 07:12:00,
2013-08-12 03:22:00,62.0,60.0,30.02,NW,311,0.0,0.0,92,0.00,,,0.00,,2013-08-12 07:22:00,
2013-08-12 03:33:00,62.0,60.0,30.02,NW,311,0.0,0.0,92,0.00,,,0.00,,2013-08-12 07:33:00,
2013-08-12 03:43:00,62.0,60.0,30.02,NW,311,0.0,0.0,93,0.00,,,0.00,,2013-08-12 07:43:00,
2013-08-12 03:52:00,62.0,60.0,30.01,NW,311,0.0,0.0,93,0.00,,,0.00,,2013-08-12 07:52:00,
2013-08-12 04:02:00,62.0,60.0,30.01,NW,311,0.0,0.0,93,0.00,,,0.00,,2013-08-12 08:02:00,
2013-08-12 04:11:00,62.0,60.0,30.01,NW,311,0.0,0.0,93,0.00,,,0.00,,2013-08-12 08:11:00,
2013-08-12 04:22:00,61.0,59.0,30.01,NW,311,0.0,0.0,94,0.00,,,0.00,,2013-08-12 08:22:00,
2013-08-12 04:33:00,61.0,59.0,30.01,NW,311,0.0,0.0,94,0.00,,,0.00,,2013-08-12 08:33:00,
2013-08-12 04:43:00,61.0,59.0,30.01,NW,311,0.0,0.0,94,0.00,,,0.00,,2013-08-12 08:43:00,
2013-08-12 04:53:00,61.0,59.0,30.01,NW,311,0.0,0.0,94,0.00,,,0.00,,2013-08-12 08:53:00,
2013-08-12 05:02:00,61.0,59.0,30.01,NW,311,0.0,0.0,94,0.00,,,0.00,,2013-08-12 09:02:00,
2013-08-12 05:11:00,62.0,60.0,30.01,NW,311,0.0,0.0,94,0.00,,,0.00,,2013-08-12 09:11:00,
2013-08-12 05:22:00,62.0,60.0,30.00,NW,311,0.0,0.0,94,0.00,,,0.00,,2013-08-12 09:22:00,
2013-08-12 05:32:00,62.0,60.0,30.00,NW,311,0.0,1.0,94,0.00,,,0.00,,2013-08-12 09:32:00,
2013-08-12 05:43:00,62.0,60.0,30.00,NW,311,0.0,0.0,93,0.00,,,0.00,,2013-08-12 09:43:00,
2013-08-12 05:53:00,62.0,60.0,30.00,NW,311,0.0,0.0,93,0.00,,,0.00,,2013-08-12 09:53:00,
2013-08-12 06:02:00,62.0,60.0,30.00,NW,311,0.0,0.0,93,0.00,,,0.00,,2013-08-12 10:02:00,
2013-08-12 06:12:00,62.0,60.0,30.00,NW,311,0.0,0.0,93,0.00,,,0.00,,2013-08-12 10:12:00,
2013-08-12 06:22:00,62.0,60.0,30.01,NW,311,0.0,0.0,93,0.00,,,0.00,,2013-08-12 10:22:00,
2013-08-12 06:32:00,62.0,60.0,30.00,NW,311,0.0,0.0,92,0.00,,,0.00,,2013-08-12 10:32:00,
2013-08-12 06:43:00,62.0,60.0,30.00,NW,311,0.0,0.0,92,0.00,,,0.00,,2013-08-12 10:43:00,
2013-08-12 06:52:00,62.0,60.0,30.00,NW,311,0.0,0.0,93,0.00,,,0.00,,2013-08-12 10:52:00,
2013-08-12 07:02:00,62.0,60.0,30.00,NW,311,0.0,0.0,93,0.00,,,0.00,,2013-08-12 11:02:00,
2013-08-12 07:12:00,62.0,60.0,30.00,NW,311,0.0,0.0,93,0.00,,,0.00,,2013-08-12 11:12:00,
2013-08-12 07:22:00,63.0,61.0,30.00,NW,311,0.0,0.0,93,0.00,,,0.00,,2013-08-12 11:22:00,
2013-08-12 07:32:00,63.0,61.0,30.00,NW,311,0.0,1.0,93,0.00,,,0.00,,2013-08-12 11:32:00,
2013-08-12 07:42:00,62.0,60.0,29.99,NW,311,0.0,0.0,93,0.00,,,0.00,,2013-08-12 11:42:00,
2013-08-12 07:52:00,62.0,60.0,29.99,NW,311,0.0,0.0,93,0.00,,,0.00,,2013-08-12 11:52:00,
2013-08-12 08:02:00,62.0,60.0,29.99,NW,311,0.0,1.0,93,0.00,,,0.00,,2013-08-12 12:02:00,
2013-08-12 08:11:00,63.0,61.0,29.98,NW,311,0.0,0.0,94,0.00,,,0.00,,2013-08-12 12:11:00,
2013-08-12 08:22:00,63.0,61.0,29.98,NW,311,0.0,1.0,92,0.00,,,0.00,,2013-08-12 12:22:00,
2013-08-12 08:32:00,63.0,61.0,29.98,NW,311,0.0,0.0,92,0.00,,,0.00,,2013-08-12 12:32:00,
2013-08-12 08:43:00,64.0,61.0,29.98,NW,311,0.0,1.0,91,0.00,,,0.00,,2013-08-12 12:43:00,
2013-08-12 08:52:00,64.0,61.0,29.98,NW,311,0.0,0.0,91,0.00,,,0.00,,2013-08-12 12:52:00,
2013-08-12 09:02:00,64.0,61.0,29.98,NW,311,0.0,1.0,90,0.00,,,0.00,,2013-08-12 13:02:00,
2013-08-12 09:11:00,64.0,61.0,29.98,NW,311,0.0,0.0,90,0.00,,,0.00,,2013-08-12 13:11:00,
2013-08-12 09:22:00,65.0,62.0,29.98,NW,311,0.0,0.0,90,0.00,,,0.00,,2013-08-12 13:22:00,
2013-08-12 09:33:00,65.0,62.0,29.98,NW,311,0.0,0.0,89,0.00,,,0.00,,2013-08-12 13:33:00,
2013-08-12 09:43:00,66.0,63.0,29.98,NW,311,0.0,0.0,89,0.00,,,0.00,,2013-08-12 13:43:00,
2013-08-12 09:53:00,66.0,63.0,29.98,NW,311,0.0,0.0,89,0.00,,,0.00,,2013-08-12 13:53:00,
2013-08-12 10:32:00,67.0,64.0,29.97,West,270,0.0,3.0,90,0.00,,,0.00,,2013-08-12 14:32:00,
2013-08-12 10:42:00,67.0,64.0,29.97,West,270,0.0,2.0,91,0.00,,,0.00,,2013-08-12 14:42:00,
2013-08-12 10:52:00,68.0,65.0,29.97,SW,236,2.0,6.0,90,0.00,,,0.00,,2013-08-12 14:52:00,
2013-08-12 14:32:00,75.0,65.0,29.93,WSW,241,8.0,11.0,71,0.00,,,0.00,,2013-08-12 18:32:00,
2013-08-12 15:02:00,75.0,66.0,29.92,West,263,7.0,14.0,74,0.00,,,0.00,,2013-08-12 19:02:00,
2013-08-12 15:43:00,76.0,67.0,29.91,WSW,257,3.0,5.0,73,0.00,,,0.00,,2013-08-12 19:43:00,
2013-08-12 16:42:00,77.0,66.0,29.89,North,5,0.0,4.0,70,0.00,,,0.00,,2013-08-12 20:42:00,
2013-08-12 17:01:00,77.0,65.0,29.89,WSW,255,3.0,7.0,67,0.00,,,0.00,,2013-08-12 21:01:00,
2013-08-12 17:32:00,77.0,66.0,29.88,West,271,3.0,12.0,69,0.00,,,0.00,,2013-08-12 21:32:00,
2013-08-12 17:43:00,77.0,66.0,29.88,NNE,26,3.0,11.0,69,0.00,,,0.00,,2013-08-12 21:43:00,
2013-08-12 18:53:00,78.0,66.0,29.87,WNW,287,0.0,5.0,66,0.00,,,0.00,,2013-08-12 22:53:00,
2013-08-12 19:02:00,76.0,65.0,29.87,ENE,64,0.0,4.0,68,0.00,,,0.00,,2013-08-12 23:02:00,
2013-08-12 19:11:00,76.0,65.0,29.87,North,5,0.0,3.0,68,0.00,,,0.00,,2013-08-12 23:11:00,
2013-08-12 19:22:00,75.0,64.0,29.87,North,355,0.0,6.0,69,0.00,,,0.00,,2013-08-12 23:22:00,
2013-08-12 19:54:00,74.0,64.0,29.87,NW,315,0.0,1.0,70,0.00,,,0.00,,2013-08-12 23:54:00,
2013-08-12 20:12:00,74.0,64.0,29.86,NW,315,0.0,1.0,72,0.00,,,0.00,,2013-08-13 00:12:00,
2013-08-12 20:24:00,73.0,64.0,29.86,NW,317,0.0,1.0,73,0.00,,,0.00,,2013-08-13 00:24:00,
2013-08-12 20:45:00,72.0,63.0,29.86,NW,317,0.0,0.0,74,0.00,,,0.00,,2013-08-13 00:45:00,
2013-08-12 20:54:00,71.0,63.0,29.86,NW,317,0.0,0.0,76,0.00,,,0.00,,2013-08-13 00:54:00,
2013-08-12 21:13:00,69.0,63.0,29.87,NW,317,0.0,0.0,80,0.00,,,0.00,,2013-08-13 01:13:00,
2013-08-12 21:23:00,68.0,61.0,29.87,NW,317,0.0,0.0,79,0.00,,,0.00,,2013-08-13 01:23:00,
2013-08-12 21:42:00,68.0,60.0,29.88,NW,317,0.0,1.0,76,0.00,,,0.00,,2013-08-13 01:42:00,
2013-08-12 21:55:00,67.0,60.0,29.88,NW,317,0.0,0.0,78,0.00,,,0.00,,2013-08-13 01:55:00,
2013-08-12 22:11:00,66.0,59.0,29.89,NW,317,0.0,1.0,79,0.00,,,0.00,,2013-08-13 02:11:00,
2013-08-12 22:22:00,67.0,59.0,29.90,NNE,30,0.0,7.0,75,0.00,,,0.00,,2013-08-13 02:22:00,
2013-08-12 22:43:00,68.0,59.0,29.90,ESE,123,1.0,5.0,73,0.00,,,0.00,,2013-08-13 02:43:00,
2013-08-12 22:52:00,68.0,59.0,29.90,ENE,74,0.0,6.0,73,0.00,,,0.00,,2013-08-13 02:52:00,
2013-08-12 23:22:00,67.0,58.0,29.92,South,183,1.0,5.0,72,0.00,,,0.00,,2013-08-13 03:22:00,
2013-08-12 23:54:00,66.0,57.0,29.91,ENE,57,0.0,3.0,74,0.00,,,0.00,,2013-08-13 03:54:00,